EZY84BY EGCC-LPPR

Flight info

Callsign EZY84BY
Flight time 2h 4m
Altitude 34000
Route ASMIM DCT NOKIN P17 BEPHE DCT OSSEP DCT ELNIF DCT ZESPE DCT DAWLY DCT BHD DCT SALCO DCT IBISU DCT LOTEE DCT ELTEP T328 ASPOR
Aircraft A320/M-SDE2E3FGHIJ1RWXYZ/LB1

Departure

Time 2026-05-05 17:35
Airport Manchester Airport (EGCC)

Arrival

Time 2026-05-05 19:39
Airport Francisco de Sá Carneiro Airport (LPPR)
Time Latitude Longitude Altitude Speed Heading
2026-05-05 17:03 53.36555 -2.27933 255 ft 0 kts 45°
2026-05-05 17:20 53.36555 -2.27934 255 ft 1 kts 45°
2026-05-05 17:21 53.36538 -2.27962 255 ft 4 kts 45°
2026-05-05 17:21 53.36520 -2.27992 255 ft 2 kts 45°
2026-05-05 17:21 53.36508 -2.28019 255 ft 4 kts 96°
2026-05-05 17:22 53.36510 -2.28036 255 ft 3 kts 135°
2026-05-05 17:22 53.36507 -2.28032 255 ft 0 kts 135°
2026-05-05 17:24 53.36499 -2.28019 255 ft 7 kts 140°
2026-05-05 17:24 53.36455 -2.27971 255 ft 11 kts 138°
2026-05-05 17:25 53.36373 -2.27963 255 ft 14 kts 228°
2026-05-05 17:25 53.36349 -2.28006 255 ft 16 kts 225°
2026-05-05 17:25 53.36170 -2.27992 255 ft 17 kts 136°
2026-05-05 17:25 53.36075 -2.27868 255 ft 17 kts 142°
2026-05-05 17:26 53.35974 -2.27741 255 ft 19 kts 150°
2026-05-05 17:26 53.35888 -2.27726 255 ft 19 kts 182°
2026-05-05 17:26 53.35753 -2.27748 248 ft 22 kts 186°
2026-05-05 17:26 53.35606 -2.27772 240 ft 23 kts 185°
2026-05-05 17:27 53.35486 -2.27873 240 ft 19 kts 225°
2026-05-05 17:27 53.35383 -2.28039 236 ft 22 kts 223°
2026-05-05 17:27 53.35269 -2.28225 232 ft 24 kts 227°
2026-05-05 17:27 53.35162 -2.28445 227 ft 24 kts 231°
2026-05-05 17:28 53.35078 -2.28620 229 ft 15 kts 231°
2026-05-05 17:28 53.35011 -2.28747 227 ft 15 kts 226°
2026-05-05 17:28 53.34946 -2.28859 226 ft 13 kts 226°
2026-05-05 17:28 53.34900 -2.28940 223 ft 2 kts 227°
2026-05-05 17:29 53.34895 -2.28949 223 ft 0 kts 227°
2026-05-05 17:29 53.34890 -2.28959 222 ft 3 kts 227°
2026-05-05 17:29 53.34851 -2.29024 219 ft 7 kts 221°
2026-05-05 17:30 53.34831 -2.29049 218 ft 2 kts 213°
2026-05-05 17:30 53.34811 -2.29063 218 ft 6 kts 199°
2026-05-05 17:30 53.34803 -2.29066 224 ft 0 kts 195°
2026-05-05 17:32 53.34752 -2.29070 218 ft 17 kts 172°
2026-05-05 17:32 53.34678 -2.28945 223 ft 14 kts 75°
2026-05-05 17:32 53.34707 -2.28875 221 ft 0 kts 52°
2026-05-05 17:34 53.34735 -2.28816 222 ft 33 kts 51°
2026-05-05 17:34 53.35036 -2.28197 234 ft 102 kts 51°
2026-05-05 17:34 53.35599 -2.27031 259 ft 153 kts 51°
2026-05-05 17:34 53.36302 -2.25575 740 ft 160 kts 50°
2026-05-05 17:35 53.37004 -2.24124 1408 ft 164 kts 49°
2026-05-05 17:35 53.37778 -2.22531 1665 ft 187 kts 50°
2026-05-05 17:35 53.38811 -2.21025 1937 ft 210 kts 20°
2026-05-05 17:35 53.40329 -2.20985 2297 ft 236 kts 341°
2026-05-05 17:36 53.41634 -2.22772 2859 ft 256 kts 302°
2026-05-05 17:36 53.42131 -2.25666 3672 ft 264 kts 276°
2026-05-05 17:36 53.42231 -2.28720 4527 ft 267 kts 281°
2026-05-05 17:36 53.42938 -2.31579 5369 ft 268 kts 304°
2026-05-05 17:37 53.44077 -2.34036 6220 ft 269 kts 310°
2026-05-05 17:37 53.45187 -2.36612 7038 ft 271 kts 304°
2026-05-05 17:37 53.46178 -2.39307 7903 ft 271 kts 298°
2026-05-05 17:37 53.46787 -2.42310 8747 ft 274 kts 280°
2026-05-05 17:38 53.46811 -2.45515 9552 ft 278 kts 263°
2026-05-05 17:38 53.46451 -2.48682 10292 ft 283 kts 261°
2026-05-05 17:38 53.46066 -2.52057 10513 ft 306 kts 261°
2026-05-05 17:38 53.45664 -2.55668 10843 ft 322 kts 261°
2026-05-05 17:39 53.45158 -2.59365 11468 ft 329 kts 252°
2026-05-05 17:39 53.44123 -2.62812 12160 ft 335 kts 237°
2026-05-05 17:39 53.42548 -2.65720 12828 ft 342 kts 221°
2026-05-05 17:39 53.40519 -2.67857 13497 ft 348 kts 206°
2026-05-05 17:40 53.38246 -2.69312 14129 ft 352 kts 202°
2026-05-05 17:40 53.35937 -2.70737 14738 ft 354 kts 202°
2026-05-05 17:40 53.33650 -2.72150 15334 ft 356 kts 202°
2026-05-05 17:40 53.31319 -2.73597 15940 ft 359 kts 202°
2026-05-05 17:41 53.28973 -2.75057 16534 ft 361 kts 202°
2026-05-05 17:41 53.26609 -2.76529 17145 ft 364 kts 202°
2026-05-05 17:41 53.24223 -2.78015 17731 ft 367 kts 202°
2026-05-05 17:41 53.21829 -2.79503 18309 ft 369 kts 202°
2026-05-05 17:42 53.19412 -2.81007 18814 ft 371 kts 202°
2026-05-05 17:42 53.16986 -2.82517 19338 ft 374 kts 202°
2026-05-05 17:42 53.14541 -2.84028 19835 ft 376 kts 202°
2026-05-05 17:42 53.12079 -2.85546 20320 ft 379 kts 202°
2026-05-05 17:43 53.09559 -2.86917 20797 ft 383 kts 195°
2026-05-05 17:43 53.06948 -2.87558 21244 ft 388 kts 185°
2026-05-05 17:43 53.04242 -2.87374 21701 ft 393 kts 174°
2026-05-05 17:43 53.01527 -2.86632 22166 ft 396 kts 173°
2026-05-05 17:44 52.98801 -2.85878 22617 ft 398 kts 173°
2026-05-05 17:44 52.96058 -2.85124 23059 ft 400 kts 173°
2026-05-05 17:44 52.93294 -2.84375 23559 ft 401 kts 173°
2026-05-05 17:44 52.90551 -2.83637 23930 ft 403 kts 173°
2026-05-05 17:45 52.87778 -2.82892 24303 ft 405 kts 173°
2026-05-05 17:45 52.84986 -2.82145 24641 ft 408 kts 173°
2026-05-05 17:45 52.82178 -2.81392 24976 ft 410 kts 173°
2026-05-05 17:45 52.79359 -2.80634 25320 ft 412 kts 173°
2026-05-05 17:46 52.76562 -2.79881 25646 ft 414 kts 173°
2026-05-05 17:46 52.73706 -2.79116 25979 ft 416 kts 173°
2026-05-05 17:46 52.70846 -2.78345 26314 ft 418 kts 172°
2026-05-05 17:46 52.67962 -2.77568 26641 ft 420 kts 172°
2026-05-05 17:47 52.65074 -2.76790 26955 ft 422 kts 172°
2026-05-05 17:47 52.62164 -2.76060 27256 ft 424 kts 176°
2026-05-05 17:47 52.59217 -2.75937 27555 ft 424 kts 185°
2026-05-05 17:47 52.56263 -2.76220 27845 ft 427 kts 184°
2026-05-05 17:48 52.53288 -2.76491 28124 ft 429 kts 185°
2026-05-05 17:48 52.50333 -2.76750 28404 ft 432 kts 184°
2026-05-05 17:48 52.47326 -2.77009 28729 ft 433 kts 184°
2026-05-05 17:48 52.44316 -2.77262 29100 ft 433 kts 184°
2026-05-05 17:49 52.41297 -2.77513 29383 ft 435 kts 184°
2026-05-05 17:49 52.38265 -2.77769 29664 ft 437 kts 184°
2026-05-05 17:49 52.35220 -2.78030 29936 ft 439 kts 184°
2026-05-05 17:49 52.32166 -2.78294 30170 ft 441 kts 184°
2026-05-05 17:50 52.29091 -2.78558 30361 ft 443 kts 184°
2026-05-05 17:50 52.26004 -2.78818 30582 ft 445 kts 184°
2026-05-05 17:50 52.22905 -2.79078 30878 ft 444 kts 184°
2026-05-05 17:50 52.19883 -2.79336 31315 ft 440 kts 184°
2026-05-05 17:51 52.16830 -2.79599 31639 ft 439 kts 184°
2026-05-05 17:51 52.13783 -2.79861 31946 ft 438 kts 184°
2026-05-05 17:51 52.10741 -2.80121 32267 ft 437 kts 184°
2026-05-05 17:51 52.07701 -2.80383 32534 ft 438 kts 184°
2026-05-05 17:52 52.04654 -2.80646 32791 ft 438 kts 185°
2026-05-05 17:52 52.01611 -2.80904 33078 ft 438 kts 184°
2026-05-05 17:52 51.98576 -2.81160 33439 ft 436 kts 184°
2026-05-05 17:52 51.95556 -2.81414 33785 ft 434 kts 184°
2026-05-05 17:53 51.92570 -2.81666 34044 ft 435 kts 185°
2026-05-05 17:53 51.89554 -2.81921 34297 ft 434 kts 184°
2026-05-05 17:53 51.86541 -2.82174 34556 ft 433 kts 184°
2026-05-05 17:53 51.83527 -2.82523 34758 ft 434 kts 186°
2026-05-05 17:54 51.80531 -2.83065 34946 ft 434 kts 189°
2026-05-05 17:54 51.74597 -2.84463 35029 ft 428 kts 189°
2026-05-05 17:55 51.68762 -2.85856 35032 ft 427 kts 189°
2026-05-05 17:55 51.62884 -2.87146 35025 ft 426 kts 188°
2026-05-05 17:56 51.56995 -2.88389 35014 ft 427 kts 190°
2026-05-05 17:56 51.51328 -2.91085 35001 ft 427 kts 201°
2026-05-05 17:57 51.45764 -2.94436 34974 ft 428 kts 201°
2026-05-05 17:57 51.40225 -2.97762 34978 ft 428 kts 201°
2026-05-05 17:58 51.34642 -3.01104 34985 ft 429 kts 201°
2026-05-05 17:58 51.29061 -3.04438 34968 ft 429 kts 201°
2026-05-05 17:59 51.23477 -3.07760 34983 ft 428 kts 201°
2026-05-05 17:59 51.17939 -3.11038 34993 ft 427 kts 201°
2026-05-05 18:00 51.12372 -3.14324 34991 ft 427 kts 201°
2026-05-05 18:00 51.06808 -3.17617 34986 ft 426 kts 201°
2026-05-05 18:01 51.01248 -3.20899 34988 ft 426 kts 201°
2026-05-05 18:01 50.95687 -3.24154 34982 ft 426 kts 200°
2026-05-05 18:02 50.90164 -3.27384 34983 ft 426 kts 200°
2026-05-05 18:02 50.84606 -3.30637 34969 ft 427 kts 201°
2026-05-05 18:03 50.79025 -3.33880 34964 ft 428 kts 200°
2026-05-05 18:03 50.73429 -3.37131 34965 ft 428 kts 201°
2026-05-05 18:04 50.67832 -3.40383 34964 ft 429 kts 201°
2026-05-05 18:04 50.62264 -3.43606 34962 ft 429 kts 201°
2026-05-05 18:05 50.56591 -3.46455 34970 ft 428 kts 190°
2026-05-05 18:05 50.50673 -3.47529 34974 ft 428 kts 186°
2026-05-05 18:06 50.44757 -3.48528 34980 ft 427 kts 186°
2026-05-05 18:06 50.38862 -3.49499 34975 ft 427 kts 185°
2026-05-05 18:07 50.32966 -3.49965 34978 ft 427 kts 181°
2026-05-05 18:07 50.28190 -3.50113 34973 ft 427 kts 181°
2026-05-05 18:08 50.22420 -3.50317 34970 ft 427 kts 181°
2026-05-05 18:08 50.16486 -3.50618 34970 ft 427 kts 182°
2026-05-05 18:09 50.10590 -3.50954 34966 ft 427 kts 182°
2026-05-05 18:09 50.04690 -3.51283 34967 ft 428 kts 182°
2026-05-05 18:10 49.98927 -3.51595 34975 ft 428 kts 181°
2026-05-05 18:10 49.93043 -3.51917 34976 ft 428 kts 182°
2026-05-05 18:11 49.87213 -3.52231 34960 ft 429 kts 181°
2026-05-05 18:11 49.81524 -3.52533 34955 ft 430 kts 182°
2026-05-05 18:12 49.75564 -3.52872 34955 ft 430 kts 184°
2026-05-05 18:12 49.69846 -3.54661 34956 ft 431 kts 196°
2026-05-05 18:13 49.64388 -3.57088 34957 ft 431 kts 196°
2026-05-05 18:13 49.58810 -3.59541 34959 ft 432 kts 196°
2026-05-05 18:14 49.53294 -3.61958 34958 ft 433 kts 196°
2026-05-05 18:14 49.47813 -3.64359 34960 ft 433 kts 196°
2026-05-05 18:15 49.42116 -3.66842 34965 ft 434 kts 195°
2026-05-05 18:15 49.36500 -3.69286 34966 ft 434 kts 196°
2026-05-05 18:16 49.30706 -3.71818 34961 ft 435 kts 196°
2026-05-05 18:16 49.24965 -3.74313 34973 ft 435 kts 195°
2026-05-05 18:17 49.19134 -3.76829 34964 ft 436 kts 195°
2026-05-05 18:17 49.13282 -3.79356 34960 ft 437 kts 195°
2026-05-05 18:18 49.07418 -3.81889 34959 ft 438 kts 195°
2026-05-05 18:18 49.01587 -3.84396 34971 ft 439 kts 195°
2026-05-05 18:19 48.95706 -3.86923 34965 ft 440 kts 195°
2026-05-05 18:19 48.89806 -3.89450 34965 ft 440 kts 195°
2026-05-05 18:20 48.83908 -3.91975 34968 ft 441 kts 195°
2026-05-05 18:20 48.77998 -3.94494 34965 ft 441 kts 195°
2026-05-05 18:21 48.72086 -3.97005 34969 ft 441 kts 195°
2026-05-05 18:21 48.66204 -3.99494 34967 ft 442 kts 195°
2026-05-05 18:22 48.60288 -4.01994 34967 ft 442 kts 195°
2026-05-05 18:22 48.54366 -4.04489 34975 ft 442 kts 195°
2026-05-05 18:23 48.48438 -4.06978 34981 ft 443 kts 195°
2026-05-05 18:23 48.42541 -4.09452 34982 ft 443 kts 195°
2026-05-05 18:24 48.36603 -4.11950 34987 ft 443 kts 195°
2026-05-05 18:24 48.30654 -4.14435 34989 ft 444 kts 195°
2026-05-05 18:25 48.24708 -4.16910 34992 ft 444 kts 195°
2026-05-05 18:25 48.18750 -4.19384 34990 ft 444 kts 195°
2026-05-05 18:26 48.12838 -4.21836 34979 ft 444 kts 195°
2026-05-05 18:26 48.06884 -4.24299 34978 ft 444 kts 195°
2026-05-05 18:27 48.00921 -4.26753 34956 ft 444 kts 195°
2026-05-05 18:27 47.94954 -4.29212 34955 ft 445 kts 195°
2026-05-05 18:28 47.86013 -4.32885 34958 ft 447 kts 195°
2026-05-05 18:28 47.80010 -4.35339 34958 ft 448 kts 195°
2026-05-05 18:29 47.73999 -4.37798 34952 ft 448 kts 195°
2026-05-05 18:29 47.68017 -4.40238 34960 ft 449 kts 195°
2026-05-05 18:30 47.61998 -4.42687 34970 ft 449 kts 195°
2026-05-05 18:30 47.55966 -4.45124 34958 ft 449 kts 194°
2026-05-05 18:31 47.50289 -4.47415 34969 ft 449 kts 195°
2026-05-05 18:31 47.44259 -4.49851 34979 ft 449 kts 195°
2026-05-05 18:32 47.38276 -4.52266 34969 ft 449 kts 195°
2026-05-05 18:32 47.32252 -4.54684 34967 ft 448 kts 195°
2026-05-05 18:33 47.26232 -4.57094 34976 ft 448 kts 194°
2026-05-05 18:33 47.20209 -4.59495 34972 ft 448 kts 194°
2026-05-05 18:34 47.14194 -4.61888 34965 ft 448 kts 194°
2026-05-05 18:34 47.08218 -4.64302 34975 ft 448 kts 196°
2026-05-05 18:35 47.02304 -4.67198 34970 ft 449 kts 199°
2026-05-05 18:35 46.96444 -4.70381 34970 ft 449 kts 200°
2026-05-05 18:36 46.90600 -4.73486 34965 ft 449 kts 199°
2026-05-05 18:36 46.84762 -4.76468 34966 ft 450 kts 199°
2026-05-05 18:37 46.78854 -4.79450 34967 ft 450 kts 199°
2026-05-05 18:37 46.72937 -4.82450 34965 ft 450 kts 199°
2026-05-05 18:38 46.67021 -4.85454 34962 ft 451 kts 199°
2026-05-05 18:38 46.61100 -4.88453 34966 ft 451 kts 199°
2026-05-05 18:39 46.55211 -4.91442 34964 ft 451 kts 199°
2026-05-05 18:39 46.49279 -4.94431 34968 ft 452 kts 199°
2026-05-05 18:40 46.43337 -4.97423 34973 ft 452 kts 199°
2026-05-05 18:40 46.37392 -5.00403 34979 ft 452 kts 199°
2026-05-05 18:41 46.31482 -5.03360 34977 ft 452 kts 199°
2026-05-05 18:41 46.25540 -5.06344 34983 ft 452 kts 199°
2026-05-05 18:42 46.19596 -5.09305 34992 ft 452 kts 199°
2026-05-05 18:42 46.13655 -5.12248 34994 ft 451 kts 199°
2026-05-05 18:43 46.07765 -5.15167 34999 ft 450 kts 199°
2026-05-05 18:43 46.01836 -5.18106 34987 ft 451 kts 199°
2026-05-05 18:44 45.95896 -5.21039 34979 ft 452 kts 199°
2026-05-05 18:44 45.89945 -5.23974 34985 ft 452 kts 199°
2026-05-05 18:45 45.84030 -5.26883 34994 ft 452 kts 199°
2026-05-05 18:45 45.78080 -5.29812 34994 ft 453 kts 199°
2026-05-05 18:46 45.72122 -5.32729 34993 ft 452 kts 199°
2026-05-05 18:46 45.66164 -5.35633 35001 ft 452 kts 199°
2026-05-05 18:47 45.60210 -5.38532 35001 ft 452 kts 200°
2026-05-05 18:47 45.54298 -5.41422 35002 ft 452 kts 200°
2026-05-05 18:48 45.48337 -5.44313 35006 ft 452 kts 199°
2026-05-05 18:48 45.42382 -5.47184 34997 ft 452 kts 199°
2026-05-05 18:49 45.36423 -5.50054 35001 ft 452 kts 200°
2026-05-05 18:49 45.30472 -5.52929 35004 ft 452 kts 199°
2026-05-05 18:50 45.24556 -5.55781 35010 ft 452 kts 200°
2026-05-05 18:50 45.18611 -5.58638 35018 ft 451 kts 200°
2026-05-05 18:51 45.12669 -5.61481 35018 ft 450 kts 199°
2026-05-05 18:51 45.06733 -5.64313 35016 ft 450 kts 200°
2026-05-05 18:52 45.00841 -5.67117 35023 ft 450 kts 199°
2026-05-05 18:52 44.94911 -5.69937 35025 ft 449 kts 200°
2026-05-05 18:53 44.88992 -5.72742 35015 ft 449 kts 200°
2026-05-05 18:53 44.83078 -5.75545 35012 ft 448 kts 200°
2026-05-05 18:54 44.77166 -5.78341 35016 ft 448 kts 200°
2026-05-05 18:54 44.71252 -5.81132 35023 ft 448 kts 200°
2026-05-05 18:55 44.65501 -5.84277 35024 ft 445 kts 211°
2026-05-05 18:55 44.60401 -5.89127 35022 ft 443 kts 217°
2026-05-05 18:56 44.55369 -5.94112 35031 ft 443 kts 217°
2026-05-05 18:56 44.50329 -5.99070 35026 ft 443 kts 217°
2026-05-05 18:57 44.45320 -6.04008 35020 ft 443 kts 218°
2026-05-05 18:57 44.40286 -6.08974 35021 ft 443 kts 218°
2026-05-05 18:58 44.35242 -6.13925 35008 ft 443 kts 218°
2026-05-05 18:58 44.30186 -6.18874 35022 ft 444 kts 218°
2026-05-05 18:59 44.25133 -6.23828 35022 ft 444 kts 218°
2026-05-05 18:59 44.20113 -6.28740 35027 ft 444 kts 218°
2026-05-05 19:00 44.15055 -6.33669 35032 ft 444 kts 218°
2026-05-05 19:00 44.09996 -6.38577 35035 ft 444 kts 218°
2026-05-05 19:01 44.04929 -6.43487 35040 ft 444 kts 218°
2026-05-05 19:01 43.99906 -6.48358 35020 ft 443 kts 219°
2026-05-05 19:02 43.94852 -6.53249 35031 ft 443 kts 218°
2026-05-05 19:02 43.89815 -6.58109 35037 ft 442 kts 218°
2026-05-05 19:03 43.84760 -6.62975 35048 ft 442 kts 218°
2026-05-05 19:03 43.79737 -6.67787 35046 ft 441 kts 219°
2026-05-05 19:04 43.74690 -6.72613 35058 ft 441 kts 219°
2026-05-05 19:04 43.69648 -6.77430 35059 ft 440 kts 219°
2026-05-05 19:05 43.64616 -6.82243 35055 ft 440 kts 219°
2026-05-05 19:05 43.59619 -6.87008 35033 ft 439 kts 219°
2026-05-05 19:06 43.54596 -6.91784 35043 ft 439 kts 219°
2026-05-05 19:06 43.49565 -6.96551 35055 ft 438 kts 219°
2026-05-05 19:07 43.45386 -7.00491 35061 ft 438 kts 219°
2026-05-05 19:07 43.39510 -7.06040 35048 ft 438 kts 220°
2026-05-05 19:08 43.34534 -7.10738 35064 ft 437 kts 220°
2026-05-05 19:08 43.29519 -7.15458 35072 ft 436 kts 220°
2026-05-05 19:09 43.24516 -7.20154 35083 ft 436 kts 220°
2026-05-05 19:09 43.19509 -7.24835 35044 ft 435 kts 219°
2026-05-05 19:10 43.14553 -7.29465 35074 ft 433 kts 219°
2026-05-05 19:10 43.09581 -7.34112 35086 ft 432 kts 219°
2026-05-05 19:11 43.04616 -7.38741 35084 ft 432 kts 219°
2026-05-05 19:11 42.99654 -7.43352 35076 ft 431 kts 219°
2026-05-05 19:12 42.94727 -7.47916 35076 ft 431 kts 219°
2026-05-05 19:12 42.89773 -7.52499 35081 ft 430 kts 219°
2026-05-05 19:13 42.84822 -7.57072 35079 ft 430 kts 219°
2026-05-05 19:13 42.79875 -7.61640 35065 ft 429 kts 219°
2026-05-05 19:14 42.74931 -7.66193 35058 ft 428 kts 218°
2026-05-05 19:14 42.70033 -7.70677 35080 ft 427 kts 218°
2026-05-05 19:15 42.65148 -7.75149 35083 ft 426 kts 218°
2026-05-05 19:15 42.59918 -7.78978 35084 ft 434 kts 203°
2026-05-05 19:16 42.54083 -7.81200 35029 ft 436 kts 200°
2026-05-05 19:16 42.51172 -7.82281 34782 ft 431 kts 200°
2026-05-05 19:16 42.48284 -7.83358 34542 ft 429 kts 200°
2026-05-05 19:17 42.45458 -7.84418 34237 ft 425 kts 200°
2026-05-05 19:17 42.42615 -7.85487 33687 ft 423 kts 200°
2026-05-05 19:17 42.39796 -7.86545 33184 ft 419 kts 200°
2026-05-05 19:17 42.36994 -7.87593 32668 ft 416 kts 201°
2026-05-05 19:18 42.34212 -7.88631 32178 ft 413 kts 201°
2026-05-05 19:18 42.31459 -7.89655 31705 ft 409 kts 201°
2026-05-05 19:18 42.28718 -7.90675 31224 ft 407 kts 201°
2026-05-05 19:18 42.26003 -7.91685 30753 ft 404 kts 201°
2026-05-05 19:19 42.23297 -7.92691 30275 ft 401 kts 201°
2026-05-05 19:19 42.20654 -7.93673 29784 ft 399 kts 201°
2026-05-05 19:19 42.17991 -7.94663 29340 ft 394 kts 201°
2026-05-05 19:19 42.15362 -7.95635 28901 ft 389 kts 201°
2026-05-05 19:20 42.12770 -7.96592 28447 ft 385 kts 201°
2026-05-05 19:20 42.10204 -7.97536 28062 ft 379 kts 202°
2026-05-05 19:20 42.07676 -7.98464 27637 ft 375 kts 202°
2026-05-05 19:20 42.05167 -7.99388 27223 ft 372 kts 202°
2026-05-05 19:21 42.02686 -8.00307 26796 ft 369 kts 202°
2026-05-05 19:21 42.00224 -8.01220 26378 ft 366 kts 202°
2026-05-05 19:21 41.97813 -8.02112 25967 ft 363 kts 202°
2026-05-05 19:21 41.95381 -8.03010 25534 ft 361 kts 202°
2026-05-05 19:22 41.92958 -8.03905 25091 ft 360 kts 202°
2026-05-05 19:22 41.90543 -8.04794 24631 ft 360 kts 202°
2026-05-05 19:22 41.88132 -8.05681 24192 ft 359 kts 202°
2026-05-05 19:22 41.85719 -8.06570 23739 ft 359 kts 202°
2026-05-05 19:23 41.83308 -8.07456 23232 ft 360 kts 201°
2026-05-05 19:23 41.80978 -8.08559 22781 ft 351 kts 212°
2026-05-05 19:23 41.78849 -8.10093 22368 ft 345 kts 216°
2026-05-05 19:23 41.76791 -8.11640 21953 ft 343 kts 216°
2026-05-05 19:24 41.74712 -8.13197 21539 ft 341 kts 215°
2026-05-05 19:24 41.72644 -8.14741 21127 ft 340 kts 215°
2026-05-05 19:24 41.70562 -8.16252 20707 ft 342 kts 211°
2026-05-05 19:24 41.68320 -8.17393 20290 ft 346 kts 205°
2026-05-05 19:25 41.66042 -8.18438 19875 ft 345 kts 205°
2026-05-05 19:25 41.63769 -8.19479 19459 ft 346 kts 205°
2026-05-05 19:25 41.61494 -8.20518 19037 ft 346 kts 204°
2026-05-05 19:25 41.59245 -8.21541 18625 ft 346 kts 204°
2026-05-05 19:26 41.56968 -8.22576 18202 ft 347 kts 204°
2026-05-05 19:26 41.54686 -8.23615 17771 ft 345 kts 204°
2026-05-05 19:26 41.52419 -8.24649 17353 ft 344 kts 204°
2026-05-05 19:26 41.50158 -8.25682 16948 ft 343 kts 204°
2026-05-05 19:27 41.47909 -8.26710 16551 ft 341 kts 203°
2026-05-05 19:27 41.45671 -8.27733 16144 ft 339 kts 204°
2026-05-05 19:27 41.43439 -8.28751 15770 ft 338 kts 203°
2026-05-05 19:27 41.41217 -8.29764 15392 ft 337 kts 203°
2026-05-05 19:28 41.38995 -8.30774 15001 ft 337 kts 202°
2026-05-05 19:28 41.36811 -8.31763 14629 ft 336 kts 202°
2026-05-05 19:28 41.34599 -8.32763 14242 ft 336 kts 202°
2026-05-05 19:28 41.32389 -8.33762 13863 ft 335 kts 202°
2026-05-05 19:29 41.30188 -8.34758 13439 ft 334 kts 202°
2026-05-05 19:29 41.27997 -8.35749 13063 ft 332 kts 202°
2026-05-05 19:29 41.25821 -8.36735 12677 ft 330 kts 202°
2026-05-05 19:29 41.23656 -8.37712 12290 ft 328 kts 202°
2026-05-05 19:30 41.21495 -8.38686 11894 ft 327 kts 202°
2026-05-05 19:30 41.19353 -8.39656 11500 ft 325 kts 202°
2026-05-05 19:30 41.17213 -8.40624 11098 ft 324 kts 202°
2026-05-05 19:30 41.15111 -8.41574 10711 ft 323 kts 201°
2026-05-05 19:31 41.12985 -8.42531 10321 ft 322 kts 201°
2026-05-05 19:31 41.10879 -8.43479 9944 ft 320 kts 201°
2026-05-05 19:31 41.08765 -8.44431 9462 ft 321 kts 201°
2026-05-05 19:31 41.06651 -8.45383 8970 ft 322 kts 201°
2026-05-05 19:32 41.04538 -8.46331 8541 ft 320 kts 201°
2026-05-05 19:32 41.02451 -8.47353 8112 ft 317 kts 211°
2026-05-05 19:32 41.00773 -8.49141 7677 ft 307 kts 235°
2026-05-05 19:32 41.00053 -8.50726 7370 ft 301 kts 252°
2026-05-05 19:33 40.99418 -8.54247 6773 ft 296 kts 263°
2026-05-05 19:33 40.99028 -8.56918 6299 ft 296 kts 263°
2026-05-05 19:33 40.98960 -8.59584 5808 ft 287 kts 287°
2026-05-05 19:33 40.99877 -8.61776 5344 ft 267 kts 320°
2026-05-05 19:34 41.01457 -8.62880 4960 ft 250 kts 345°
2026-05-05 19:34 41.03126 -8.63287 4546 ft 239 kts 353°
2026-05-05 19:34 41.04744 -8.63500 4146 ft 229 kts 354°
2026-05-05 19:35 41.07772 -8.63948 3391 ft 213 kts 352°
2026-05-05 19:35 41.09215 -8.64227 3030 ft 207 kts 350°
2026-05-05 19:35 41.10639 -8.64535 2742 ft 207 kts 349°
2026-05-05 19:35 41.12055 -8.64865 2471 ft 206 kts 349°
2026-05-05 19:36 41.13424 -8.65196 2200 ft 195 kts 348°
2026-05-05 19:36 41.14706 -8.65512 1975 ft 181 kts 348°
2026-05-05 19:36 41.15898 -8.65813 1732 ft 166 kts 347°
2026-05-05 19:36 41.16626 -8.66001 1578 ft 157 kts 347°
2026-05-05 19:37 41.17659 -8.66270 1393 ft 144 kts 348°
2026-05-05 19:37 41.18898 -8.66592 1137 ft 133 kts 347°
2026-05-05 19:37 41.19794 -8.66823 965 ft 131 kts 347°
2026-05-05 19:37 41.20399 -8.66981 860 ft 130 kts 348°
2026-05-05 19:38 41.21256 -8.67205 679 ft 126 kts 348°
2026-05-05 19:38 41.22425 -8.67504 473 ft 129 kts 348°
2026-05-05 19:38 41.23311 -8.67735 289 ft 130 kts 348°
2026-05-05 19:38 41.23887 -8.67885 224 ft 119 kts 348°
2026-05-05 19:39 41.24492 -8.68043 207 ft 30 kts 349°
2026-05-05 19:39 41.24682 -8.68089 202 ft 27 kts 349°
2026-05-05 19:39 41.24858 -8.68137 197 ft 26 kts 348°
2026-05-05 19:39 41.25036 -8.68174 188 ft 26 kts 359°
2026-05-05 19:40 41.25158 -8.68153 186 ft 26 kts 14°
2026-05-05 19:40 41.25289 -8.68091 179 ft 13 kts 50°
2026-05-05 19:40 41.25253 -8.68013 183 ft 12 kts 163°
2026-05-05 19:40 41.25112 -8.67975 190 ft 25 kts 168°
2026-05-05 19:41 41.24951 -8.67932 194 ft 22 kts 168°
2026-05-05 19:41 41.24829 -8.67874 215 ft 16 kts 148°
2026-05-05 19:41 41.24692 -8.67809 214 ft 27 kts 169°
2026-05-05 19:41 41.24452 -8.67747 222 ft 24 kts 169°
2026-05-05 19:42 41.24319 -8.67708 230 ft 16 kts 159°
2026-05-05 19:42 41.24259 -8.67629 235 ft 19 kts 124°
2026-05-05 19:42 41.24156 -8.67477 241 ft 21 kts 145°
2026-05-05 19:42 41.24067 -8.67429 242 ft 18 kts 166°
2026-05-05 19:43 41.24019 -8.67353 245 ft 6 kts 123°
2026-05-05 19:43 41.24002 -8.67320 245 ft 3 kts 123°
2026-05-05 19:43 41.23992 -8.67301 245 ft 3 kts 125°
2026-05-05 19:43 41.23985 -8.67287 245 ft 0 kts 124°